Tunica, MS

8:03 AM CST on February 11, 2016 (GMT -0600)
Tunica

Weather History for KUTA - February, 2014

Change the Weather History Date:

Friday, February 14, 2014

  Actual Average (KMEM) Record (KMEM)
Temperature  
Mean Temperature 40 °F 45 °F  
Max Temperature 46 °F 54 °F 77 °F (1949)
Min Temperature 33 °F 36 °F 5 °F (1905)
Degree Days  
Heating Degree Days 26 20  
Month to date heating degree days 299  
Since 1 July heating degree days 2201  
Cooling Degree Days 0 0  
Month to date cooling degree days 0  
Year to date cooling degree days 1  
Moisture  
Dew Point 36 °F    
Average Humidity 88    
Maximum Humidity 93    
Minimum Humidity 76    
Precipitation  
Precipitation 0.12 in 0.16 in 4.10 in (1989)
Month to date precipitation 2.14  
Year to date precipitation 6.12  
Snow  
Snow 0.00 in 0.10 in 2.60 in (1958)
Month to date snowfall 0.8  
Since 1 July snowfall 2.9  
Snow Depth -    
Sea Level Pressure  
Sea Level Pressure 29.86 in    
Wind  
Wind Speed 9 mph (SSW)    
Max Wind Speed 25 mph    
Max Gust Speed 30 mph    
Visibility 9 miles    
Events Rain    
T = Trace of Precipitation, MM = Missing Value Source: NWS Daily Summary

Daily Weather History Graph

Daily Weather History Graph

Search for Another Location

Airport or City:

Trip Planner

Search our weather history database for the weather conditions in past years. The results will help you decide how hot, cold, wet, or windy it might be!

Date:

Astronomy

Feb. 14, 2014 Rise Set
Actual Time 6:47 AM CST 5:43 PM CST
Civil Twilight 6:22 AM CST 6:09 PM CST
Nautical Twilight 5:52 AM CST 6:39 PM CST
Astronomical Twilight 5:23 AM CST 7:08 PM CST
Moon 5:45 PM CST (2/14) 6:16 AM CST (2/14)
Length of Visible Light 11h 47m
Length of Day
10h 55m
Full, 100% of the Moon is Illuminated
Feb 14
Full
Feb 14
Full
Feb 22
Last Quarter
Mar 1
New
Mar 8
First Quarter

Hourly Weather History & Observations

Time (CST) Temp. Windchill Dew Point Humidity Pressure Visibility Wind Dir Wind Speed Gust Speed Precip Events Conditions
12:15 AM 35.6 °F 29.9 °F 32.0 °F 87% 29.90 in 10.0 mi South 6.9 mph - N/A   Clear
12:35 AM 35.6 °F 30.7 °F 32.0 °F 87% 29.90 in 10.0 mi South 5.8 mph - N/A   Clear
12:55 AM 33.8 °F 27.7 °F 32.0 °F 93% 29.90 in 10.0 mi South 6.9 mph - N/A   Clear
1:15 AM 33.8 °F 27.0 °F 32.0 °F 93% 29.90 in 10.0 mi South 8.1 mph - N/A   Clear
1:35 AM 33.8 °F 27.7 °F 32.0 °F 93% 29.89 in 10.0 mi South 6.9 mph - N/A   Clear
1:55 AM 33.8 °F 27.7 °F 32.0 °F 93% 29.88 in 10.0 mi SSE 6.9 mph - N/A   Clear
2:15 AM 33.8 °F 27.0 °F 32.0 °F 93% 29.88 in 10.0 mi South 8.1 mph - N/A   Clear
2:35 AM 33.8 °F 26.4 °F 32.0 °F 93% 29.87 in 10.0 mi SSE 9.2 mph - N/A   Clear
2:55 AM 33.8 °F 27.0 °F 32.0 °F 93% 29.87 in 10.0 mi South 8.1 mph - N/A   Clear
3:15 AM 33.8 °F 27.7 °F 32.0 °F 93% 29.86 in 10.0 mi South 6.9 mph - N/A   Clear
3:35 AM 33.8 °F 28.6 °F 32.0 °F 93% 29.87 in 10.0 mi South 5.8 mph - N/A   Clear
3:55 AM 33.8 °F 29.6 °F 32.0 °F 93% 29.87 in 10.0 mi South 4.6 mph - N/A   Clear
4:15 AM 33.8 °F 28.6 °F 32.0 °F 93% 29.87 in 10.0 mi South 5.8 mph - N/A   Clear
4:35 AM 33.8 °F 27.7 °F 32.0 °F 93% 29.87 in 10.0 mi South 6.9 mph - N/A   Clear
4:55 AM 33.8 °F 27.7 °F 32.0 °F 93% 29.86 in 10.0 mi South 6.9 mph - N/A   Clear
5:15 AM 33.8 °F 26.4 °F 32.0 °F 93% 29.85 in 10.0 mi South 9.2 mph - N/A   Clear
5:35 AM 33.8 °F 27.7 °F 32.0 °F 93% 29.85 in 10.0 mi South 6.9 mph - N/A   Clear
5:55 AM 33.8 °F 27.7 °F 32.0 °F 93% 29.85 in 10.0 mi South 6.9 mph - N/A   Clear
6:15 AM 33.8 °F 28.6 °F 32.0 °F 93% 29.85 in 10.0 mi South 5.8 mph - N/A   Clear
6:35 AM 33.8 °F 27.0 °F 32.0 °F 93% 29.84 in 10.0 mi SSE 8.1 mph - N/A   Clear
6:55 AM 35.6 °F 29.9 °F 32.0 °F 87% 29.84 in 10.0 mi South 6.9 mph - N/A   Clear
7:15 AM 33.8 °F 26.4 °F 32.0 °F 93% 29.82 in 10.0 mi SSE 9.2 mph - N/A   Clear
7:35 AM 35.6 °F 28.6 °F 33.8 °F 93% 29.84 in 10.0 mi South 9.2 mph - N/A   Clear
7:55 AM 35.6 °F 29.9 °F 33.8 °F 93% 29.85 in 10.0 mi South 6.9 mph - N/A   Clear
8:15 AM 37.4 °F 30.3 °F 35.6 °F 93% 29.87 in 10.0 mi SSW 10.4 mph - N/A   Clear
8:35 AM 37.4 °F 30.8 °F 35.6 °F 93% 29.87 in 10.0 mi SSW 9.2 mph - N/A   Clear
8:55 AM 39.2 °F 32.0 °F 35.6 °F 87% 29.85 in 10.0 mi SSE 11.5 mph - N/A   Clear
9:15 AM 39.2 °F 33.6 °F 35.6 °F 87% 29.85 in 10.0 mi South 8.1 mph - N/A   Clear
9:35 AM 41.0 °F 34.7 °F 35.6 °F 81% 29.85 in 10.0 mi South 10.4 mph - N/A   Clear
9:55 AM 41.0 °F 34.3 °F 37.4 °F 87% 29.85 in 10.0 mi South 11.5 mph - N/A   Clear
10:15 AM 41.0 °F 34.3 °F 37.4 °F 87% 29.83 in 10.0 mi South 11.5 mph - N/A   Clear
10:35 AM 42.8 °F 36.6 °F 37.4 °F 81% 29.81 in 10.0 mi South 11.5 mph - N/A   Clear
10:55 AM 44.6 °F 39.2 °F 39.2 °F 81% 29.81 in 10.0 mi South 10.4 mph - N/A   Clear
11:15 AM 44.6 °F 38.8 °F 39.2 °F 81% 29.82 in 10.0 mi SSW 11.5 mph - N/A   Clear
11:35 AM 44.6 °F 39.2 °F 39.2 °F 81% 29.83 in 10.0 mi SW 10.4 mph - N/A   Clear
11:55 AM 46.4 °F 41.1 °F 41.0 °F 81% 29.82 in 10.0 mi SSW 11.5 mph - N/A   Clear
12:15 PM 46.4 °F 40.7 °F 41.0 °F 81% 29.81 in 10.0 mi SSW 12.7 mph - N/A   Clear
12:35 PM 46.4 °F 41.5 °F 41.0 °F 81% 29.77 in 10.0 mi South 10.4 mph - N/A   Clear
12:55 PM 46.4 °F 40.7 °F 41.0 °F 81% 29.76 in 10.0 mi South 12.7 mph - N/A   Clear
1:15 PM 46.4 °F 41.1 °F 41.0 °F 81% 29.74 in 10.0 mi South 11.5 mph - N/A   Clear
1:35 PM 46.4 °F 40.7 °F 41.0 °F 81% 29.74 in 10.0 mi South 12.7 mph - N/A   Clear
1:55 PM 44.6 °F 38.8 °F 41.0 °F 87% 29.72 in 10.0 mi South 11.5 mph - N/A Rain Light Rain
2:15 PM 44.6 °F 39.7 °F 42.8 °F 93% 29.72 in 7.0 mi South 9.2 mph - 0.01 in Rain Light Rain
2:35 PM 44.6 °F 40.2 °F 42.8 °F 93% 29.76 in 5.0 mi WSW 8.1 mph - 0.02 in Rain Light Rain
2:55 PM 44.6 °F 42.2 °F 42.8 °F 93% 29.76 in 3.0 mi SW 4.6 mph - 0.07 in Rain Rain
3:15 PM 44.6 °F 37.8 °F 42.8 °F 93% 29.69 in 3.0 mi SSE 15.0 mph - 0.03 in Rain Light Rain
3:35 PM 44.6 °F 38.8 °F 42.8 °F 93% 29.75 in 7.0 mi SW 11.5 mph - 0.05 in Rain Light Rain
3:55 PM 44.6 °F 39.2 °F 42.8 °F 93% 29.77 in 7.0 mi WSW 10.4 mph - 0.05 in   Overcast
4:15 PM 44.6 °F 41.4 °F 42.8 °F 93% 29.78 in 7.0 mi WSW 5.8 mph - N/A   Overcast
4:35 PM 44.6 °F 42.2 °F 42.8 °F 93% 29.78 in 7.0 mi West 4.6 mph - N/A   Mostly Cloudy
4:55 PM 46.4 °F 41.9 °F 44.6 °F 93% 29.80 in 7.0 mi West 9.2 mph - N/A   Scattered Clouds
5:15 PM 46.4 °F 41.9 °F 44.6 °F 93% 29.80 in 10.0 mi West 9.2 mph - N/A   Scattered Clouds
5:35 PM 44.6 °F 41.4 °F 42.8 °F 93% 29.82 in 10.0 mi West 5.8 mph - N/A   Clear
5:55 PM 44.6 °F 41.4 °F 41.0 °F 87% 29.83 in 10.0 mi WNW 5.8 mph - N/A   Clear
6:15 PM 42.8 °F 39.3 °F 41.0 °F 93% 29.84 in 10.0 mi WNW 5.8 mph - N/A   Mostly Cloudy
6:35 PM 42.8 °F 38.6 °F 41.0 °F 93% 29.86 in 10.0 mi NW 6.9 mph - N/A   Mostly Cloudy
6:55 PM 42.8 °F 38.0 °F 41.0 °F 93% 29.87 in 10.0 mi NW 8.1 mph - N/A   Mostly Cloudy
7:15 PM 41.0 °F 35.2 °F 39.2 °F 93% 29.89 in 7.0 mi NNW 9.2 mph - N/A   Scattered Clouds
7:35 PM 42.8 °F 34.8 °F 37.4 °F 81% 29.91 in 10.0 mi NNW 17.3 mph 28.8 mph N/A   Scattered Clouds
7:55 PM 42.8 °F 33.1 °F 35.6 °F 76% 29.93 in 10.0 mi NNW 25.3 mph 29.9 mph N/A   Mostly Cloudy
8:15 PM 41.0 °F 31.6 °F 33.8 °F 76% 29.95 in 10.0 mi NNW 20.7 mph 27.6 mph N/A   Scattered Clouds
8:35 PM 39.2 °F 29.8 °F 33.8 °F 81% 29.97 in 10.0 mi North 18.4 mph 23.0 mph N/A   Scattered Clouds
8:55 PM 37.4 °F 28.5 °F 32.0 °F 81% 29.99 in 10.0 mi NNW 15.0 mph - N/A   Scattered Clouds
9:15 PM 37.4 °F 28.2 °F 32.0 °F 81% 30.00 in 10.0 mi NNW 16.1 mph - N/A   Scattered Clouds
9:35 PM 37.4 °F 27.5 °F 32.0 °F 81% 30.01 in 10.0 mi NNW 18.4 mph 24.2 mph N/A   Mostly Cloudy
9:55 PM 37.4 °F 27.2 °F 32.0 °F 81% 30.02 in 10.0 mi NNW 19.6 mph 29.9 mph N/A   Overcast
10:15 PM 35.6 °F 25.2 °F 32.0 °F 87% 30.03 in 10.0 mi NNW 18.4 mph 27.6 mph N/A   Overcast
10:35 PM 35.6 °F 24.5 °F 30.2 °F 81% 30.05 in 10.0 mi NNW 20.7 mph 27.6 mph N/A   Overcast
10:55 PM 35.6 °F 25.5 °F 30.2 °F 81% 30.06 in 10.0 mi NNW 17.3 mph 24.2 mph N/A   Overcast
11:15 PM 35.6 °F 25.2 °F 30.2 °F 81% 30.06 in 10.0 mi NNW 18.4 mph 24.2 mph N/A   Overcast
11:35 PM 33.8 °F 24.3 °F 30.2 °F 87% 30.08 in 10.0 mi NNW 13.8 mph - N/A   Scattered Clouds
11:55 PM 33.8 °F 23.2 °F 30.2 °F 87% 30.09 in 10.0 mi NNW 17.3 mph - N/A   Clear